Retour au catalogue

SEASAT 1

ActifScienceLEO
NORAD 10967·PAYLOAD·🇺🇸 United States

Lancé Jun 27, 1978 depuis Vandenberg Space Force Base

Loading…

Prochains Passages (prochaines 24 heures)

TLE

FraisSource: Space-Track

Époque: Sep 14, 2026, 16:08 UTC

1 10967U 78064A   26257.67264166  .00000139  00000-0  77065-4 0  9990
2 10967 108.0077 162.1244 0002179 299.2092  60.8835 14.46287439533830

Suivez SEASAT 1 en temps réel avec AllMySat

Download on the App Store